Starlink 11683

operational
NORAD ID: 64239 Int'l Des: 2025-119 Owner: SPXS Country: US Constellation: starlink
LEOCIRCULAR

About Starlink 11683

Description loading...

Live Position

Loading 3D Globe...

Upcoming Passes

Altitude History

Altitude vs Time

uPlot chart will show altitude changes over time

Two-Line Element Set

1 64239U 25119G 25260.96885685 .00249944 00000-0 18770-2 0 9999
2 64239 42.9996 169.9112 0002090 231.6363 128.4317 15.71046831 18088
Epoch: Sep 17, 2025 • Age: 25 hours

Current Status

Altitude 357.3 km
Velocity 7.70 km/s
Sub-Earth Point -18.80°S, 1.47°W
Launch Date Jun 3, 2025
Age 0.2 years
Type internet

Technical Details

Classification Payload
Mass 960.00 kg
Dry Mass 910.00 kg
Total Mass 960.00 kg
Length 0.30 m
Diameter 4.10 m
Span 29.00 m
Shape Box + pan
Manufacturer SPXS
Bus Type Starlink V2MD
Phase Status In Orbit
Owner/State SPXS/US

Large Constellations

Loading constellations...